Regional Weather Roundup
Issued by NWS

Current Version | Previous Version | Text Only | Print | Product List | Glossary On
Versions: 1 2 3 4 5 6 7 8 9 10 11 12 13 14 15 16 17 18 19 20 21 22 23 24 25 26 27 28 29 30 31 32 33 34 35 36 37 38 39 40 41 42 43 44 45 46 47 48 49 50
000
ASUS43 KOAX 162210
RWRNE

WEATHER ROUNDUP FOR NEBRASKA
NATIONAL WEATHER SERVICE OMAHA NE
500 PM CDT TUE OCT 16 2018

NOTES: SATELLITE DATA IS BEING USED TO AUGMENT CLOUD COVER ABOVE
       12000 FEET.
       "FAIR" INDICATES FEW OR NO CLOUDS BELOW 12,000 FEET WITH NO
       SIGNIFICANT WEATHER AND/OR OBSTRUCTIONS TO VISIBILITY.


NEZ001>004-019>022-054>056-162300-
NEBRASKA PANHANDLE

CITY           SKY/WX    TMP DP  RH WIND       PRES   REMARKS
SCOTTSBLUFF    MOSUNNY   61  37  41 W10       30.30F
ALLIANCE       SUNNY     62  33  33 NW16G23   30.28F
CHADRON        SUNNY     62  34  35 NW17G30   30.27F
GORDON         FAIR      62  35  36 NW10      30.26S
KIMBALL        SUNNY     55  29  36 N10       30.35F
SIDNEY         SUNNY     59  31  34 N15       30.33S
$$

NEZ057>060-069>072-079>082-162300-
SOUTHWEST NEBRASKA

CITY           SKY/WX    TMP DP  RH WIND       PRES   REMARKS
NORTH PLATTE   MOSUNNY   68  34  28 N15G28    30.24R
IMPERIAL       SUNNY     65  30  27 N13       30.28S
LEXINGTON      SUNNY     69  34  27 NW16G25   30.21S
MCCOOK         SUNNY     69  34  27 N13G26    30.24F
OGALLALA       SUNNY     66  32  28 NW14      30.27S
$$

NEZ005>010-023>029-035>040-094-162300-
NORTH CENTRAL NEBRASKA

CITY           SKY/WX    TMP DP  RH WIND       PRES   REMARKS
VALENTINE      MOSUNNY   65  36  34 NW14G24   30.22S
AINSWORTH      FAIR      61  35  38 NW18G25   30.22S
BROKEN BOW     SUNNY     65  36  34 NW20G36   30.21R
O`NEILL        SUNNY     63  37  38 NW14      30.20R
ORD            SUNNY     65  36  34 NW17G26   30.19R
THEDFORD       SUNNY     64  35  34 N21G29    30.25R
$$

NEZ041-046>049-061>064-073>077-083>087-162300-
SOUTH CENTRAL NEBRASKA

CITY           SKY/WX    TMP DP  RH WIND       PRES   REMARKS
GRAND ISLAND   SUNNY     69  35  28 NW17      30.18F
AURORA         SUNNY     68  35  29 NW12G20   30.17F
HASTINGS       SUNNY     69  37  30 NW15      30.19F
HEBRON         SUNNY     69  37  30 NW10      30.18S
HOLDREGE       SUNNY     67  38  34 NW8       30.20F
KEARNEY        SUNNY     68  36  30 NW15      30.19F
YORK           SUNNY     66  37  34 NW14      30.16S
$$

NEZ011>018-030>034-042>045-162300-
NORTHEAST NEBRASKA

CITY           SKY/WX    TMP DP  RH WIND       PRES   REMARKS
NORFOLK        SUNNY     63  37  38 NW16      30.14S
ALBION         SUNNY     66  39  36 NW15G21   30.18S
BLAIR          MOSUNNY   68  38  33 NW12G17   30.13R
COLUMBUS       SUNNY     67  38  34 NW15      30.16R
FREMONT        MOSUNNY   67  37  33 NW12      30.14S
TEKAMAH        MOSUNNY   66  39  37 N16       30.14R
WAYNE          SUNNY     62  28  27 NW16      30.15S
$$

NEZ050>053-065>068-078-088>093-162300-
SOUTHEAST NEBRASKA

CITY           SKY/WX    TMP DP  RH WIND       PRES   REMARKS
LINCOLN        SUNNY     70  38  31 NW8       30.15F
OMAHA EPPLEY   MOSUNNY   68  38  33 NW15      30.12F
BEATRICE       SUNNY     68  42  38 W13       30.16F
FALLS CITY     SUNNY     66  39  37 W10       30.15F
NEBRASKA CITY  SUNNY     67  31  25 NW8G18    30.15S
PLATTSMOUTH    SUNNY     68  40  36 W8        30.13F
$$

NEZ044-045-051>053-067-162300-
OMAHA AREA

CITY           SKY/WX    TMP DP  RH WIND       PRES   REMARKS
OMAHA EPPLEY   MOSUNNY   68  38  33 NW15      30.12F
BLAIR          MOSUNNY   68  38  33 NW12G17   30.13R
FREMONT        MOSUNNY   67  37  33 NW12      30.14S
MILLARD        MOSUNNY   69  42  36 W10       30.13S
OFFUTT AFB     SUNNY     68  39  35 W10       30.12S
PLATTSMOUTH    SUNNY     68  40  36 W8        30.13F
WAHOO          FAIR      70  37  30 NW10      30.13S
$$



USA.gov is the U.S. government's official web portal to all federal, state and local government web resources and services.